Valentine, NE

1:55 PM CDT on July 28, 2016 (GMT -0500)
Miller Field

Weather History for KVTN - January, 2014

Change the Weather History Date:

Monday, January 6, 2014

  Actual Average Record
Temperature  
Mean Temperature 2 °F 23 °F  
Max Temperature 13 °F 36 °F 63 °F (1954)
Min Temperature -9 °F 10 °F -27 °F (1988)
Degree Days  
Heating Degree Days 63 42  
Month to date heating degree days 294 252  
Since 1 July heating degree days 3286 3147  
Cooling Degree Days 0 0  
Month to date cooling degree days 0 0  
Year to date cooling degree days 0 0  
Moisture  
Dew Point -13 °F    
Average Humidity 52    
Maximum Humidity 65    
Minimum Humidity 38    
Precipitation  
Precipitation 0.00 in 0.01 in 0.26 in (1909)
Month to date precipitation T 0.05  
Year to date precipitation T 0.05  
Snow  
Snow 0.00 in 0.10 in 2.60 in (1909)
Month to date snowfall 0.1 0.8  
Since 1 July snowfall 19.1 13.5  
Snow Depth T in    
Sea Level Pressure  
Sea Level Pressure 30.49 in    
Wind  
Wind Speed 10 mph (WNW)    
Max Wind Speed 21 mph    
Max Gust Speed 28 mph    
Visibility 10 miles    
Events      
T = Trace of Precipitation, MM = Missing Value Source: NWS Daily Summary

Daily Weather History Graph

Daily Weather History Graph

Search for Another Location

Airport or City:

Trip Planner

Search our weather history database for the weather conditions in past years. The results will help you decide how hot, cold, wet, or windy it might be!

Date:

Astronomy

Jan. 06, 2014 Rise Set
Actual Time 8:12 AM CST 5:23 PM CST
Civil Twilight 7:41 AM CST 5:55 PM CST
Nautical Twilight 7:05 AM CST 6:30 PM CST
Astronomical Twilight 6:31 AM CST 7:05 PM CST
Moon 11:20 AM CST (1/6) No Moon Set
Length of Visible Light 10h 14m
Length of Day
9h 10m
Waxing Crescent, 35% of the Moon is Illuminated
Jan 6
Waxing Crescent
Jan 7
First Quarter
Jan 15
Full
Jan 23
Last Quarter
Jan 30
New

Hourly Weather History & Observations

Time (CST) Temp. Windchill Dew Point Humidity Pressure Visibility Wind Dir Wind Speed Gust Speed Precip Events Conditions
12:52 AM -9.0 °F -29.3 °F -20.9 °F 56% 30.67 in 10.0 mi NW 12.7 mph 21.9 mph N/A   Clear
1:52 AM -9.0 °F -28.4 °F -20.0 °F 59% 30.65 in 10.0 mi NW 11.5 mph 19.6 mph N/A   Clear
2:52 AM -8.0 °F -27.1 °F -20.0 °F 56% 30.66 in 10.0 mi NW 11.5 mph 20.7 mph N/A   Clear
3:52 AM -9.0 °F -29.3 °F -18.9 °F 62% 30.66 in 10.0 mi WNW 12.7 mph - N/A   Clear
4:52 AM -8.0 °F -29.6 °F -18.0 °F 61% 30.65 in 10.0 mi WNW 15.0 mph 23.0 mph N/A   Clear
5:52 AM -8.0 °F -30.3 °F -18.9 °F 59% 30.64 in 10.0 mi West 16.1 mph 23.0 mph N/A   Clear
6:52 AM -8.0 °F -26.1 °F -18.0 °F 61% 30.66 in 10.0 mi WNW 10.4 mph - N/A   Clear
7:52 AM -8.0 °F -29.6 °F -18.0 °F 61% 30.65 in 10.0 mi WNW 15.0 mph - N/A   Clear
8:52 AM -7.1 °F -25.0 °F -17.0 °F 62% 30.67 in 10.0 mi West 10.4 mph - N/A   Clear
9:52 AM -4.0 °F -22.1 °F -16.1 °F 56% 30.66 in 10.0 mi WNW 11.5 mph - N/A   Clear
10:52 AM -0.0 °F -18.7 °F -14.1 °F 52% 30.64 in 10.0 mi WNW 13.8 mph 21.9 mph N/A   Clear
11:52 AM 3.9 °F -14.3 °F -13.0 °F 46% 30.58 in 10.0 mi WNW 15.0 mph 24.2 mph N/A   Clear
12:52 PM 6.1 °F -13.8 °F -11.9 °F 44% 30.53 in 10.0 mi WNW 19.6 mph 27.6 mph N/A   Clear
1:52 PM 7.0 °F -11.0 °F -11.9 °F 42% 30.48 in 10.0 mi WNW 16.1 mph 21.9 mph N/A   Clear
2:52 PM 10.0 °F -5.2 °F -11.9 °F 37% 30.44 in 10.0 mi WNW 12.7 mph 21.9 mph N/A   Clear
3:52 PM 10.9 °F -2.6 °F -11.9 °F 35% 30.42 in 10.0 mi WNW 10.4 mph - N/A   Clear
4:52 PM 10.9 °F 0.2 °F -11.0 °F 37% 30.39 in 10.0 mi WNW 6.9 mph - N/A   Clear
5:52 PM 10.0 °F -0.9 °F -11.0 °F 38% 30.35 in 10.0 mi WNW 6.9 mph - N/A   Overcast
6:52 PM 9.0 °F - -7.1 °F 48% 30.34 in 10.0 mi Calm Calm - N/A   Mostly Cloudy
7:52 PM 10.0 °F 3.6 °F -6.0 °F 48% 30.32 in 10.0 mi SSW 3.5 mph - N/A   Overcast
8:52 PM 10.9 °F - -6.0 °F 47% 30.28 in 10.0 mi Calm Calm - N/A   Overcast
9:52 PM 12.0 °F 5.9 °F -5.1 °F 46% 30.24 in 10.0 mi East 3.5 mph - N/A   Overcast
10:52 PM 12.0 °F 5.9 °F -0.9 °F 56% 30.19 in 10.0 mi East 3.5 mph - N/A   Mostly Cloudy
11:52 PM 12.0 °F 2.7 °F -0.0 °F 59% 30.15 in 10.0 mi NE 5.8 mph - N/A   Overcast